Regional Weather Roundup
Issued by NWS

Home | Current Version | Previous Version | Graphics & Text | Print | Product List | Glossary On
Versions: 1 2 3 4 5 6 7 8 9 10 11 12 13 14 15 16 17 18 19 20 21 22 23 24 25 26 27 28 29 30 31 32 33 34 35 36 37 38 39 40 41 42 43 44 45 46 47 48 49 50
000
ASUS45 KSLC 112010
RWRUT

UTAH REGIONAL WEATHER ROUNDUP
NATIONAL WEATHER SERVICE SALT LAKE CITY UT
100 PM MST MON DEC 11 2017

UTZ001>011-023>025-112100-

NORTHERN UTAH

CITY           SKY/WX    TMP DP  RH WIND       PRES   REMARKS
BRIGHAM CITY   MOSUNNY   32  23  70 CALM      30.61F
DUGWAY         MOSUNNY   32  21  62 W1        30.59F
HILL AFB       MOSUNNY   32  20  62 NW6       30.57F WCI  26
LOGAN          CLOUDY    24  18  77 W3        30.62F
OGDEN          MOSUNNY   34  22  61 VRB5      30.58F WCI  30
SALT LAKE CITY FOG       29  26  89 NW6       30.60F VSB 1/4 WCI  23
TOOELE VALLEY  MIX PCPN  27  27 100 CALM      30.62F
WENDOVER       SUNNY     34  19  54 E3        30.61F
HEBER CITY       N/A     37  12  35 CALM      30.52F
WEST JORDAN    MOSUNNY   30  26  86 CALM      30.59F

$$

UTZ011>015-024>027-112100-

CENTRAL/NORTHEAST UTAH

CITY           SKY/WX    TMP DP  RH WIND       PRES   REMARKS
PROVO AIRPORT  SUNNY     34  21  59 W5        30.58F WCI  30
MOAB/CANYONLAN SUNNY     43   5  20 E3        30.48F
DELTA          SUNNY     32  14  47 CALM      30.56F
PRICE          SUNNY     44   0  16 SE3       30.47F
RICHFIELD      SUNNY     39   0  19 CALM      30.52F
ROOSEVELT      SUNNY     34   9  35 CALM      30.56F
VERNAL         SUNNY     36  10  34 CALM      30.53F

$$

UTZ013>016-019>022-027-112100-

SOUTHERN UTAH

CITY           SKY/WX    TMP DP  RH WIND       PRES   REMARKS
BRYCE CANYON   SUNNY     52 -23   4 NE9       30.50F
CEDAR CITY     SUNNY     41   4  21 CALM      30.49F
MILFORD        SUNNY     38  16  40 N12       30.53F WCI  30
ST GEORGE      CLEAR     48   5  17 SW3       30.44F
HANKSVILLE     SUNNY     41   7  24 CALM      30.53F
KANAB          SUNNY     59  -6   7 E9        30.46F
BLANDING         N/A     44   2  17 SW3       30.51F

$$

REGIONAL REPORTS     COLORADO/ARIZONA

CITY           SKY/WX    TMP DP  RH WIND       PRES   REMARKS
CRAIG, CO      SUNNY     32  13  45 CALM      30.51F
GRAND JUNCTION SUNNY     43   4  19 CALM      30.49F
RIFLE, CO      SUNNY     43   3  19 SE3       30.50F
MONTROSE, CO   SUNNY     44   1  16 VRB6      30.51F
CORTEZ, CO     SUNNY     43   2  18 SW8       30.44F
COLORADO CITY    N/A     54   0  11 CALM      30.45F
PAGE, AZ       SUNNY     43  17  35 N5        30.49F
GRAND CANYON   SUNNY     54 -19   4 NE13      30.45F
KINGMAN, AZ    MOSUNNY   59   3  10 NE10      30.35F
FLAGSTAFF, AZ  MOSUNNY   47 -14   7 E13       30.43F

$$

REGIONAL REPORTS    NEVADA/IDAHO/WYOMING

CITY           SKY/WX    TMP DP  RH WIND       PRES   REMARKS
LAS VEGAS, NV  MOSUNNY   61   3  10 CALM      30.36F
ELY, NY        SUNNY     45  -5  12 VRB5      30.51F
ELKO, NV       SUNNY     34  20  56 CALM      30.55F
POCATELLO, ID  CLOUDY    30  19  63 E5        30.58F WCI  25
BURLEY, ID     SUNNY     29  24  82 CALM      30.55F
FORT BRIDGER,    N/A     54   4  13 NW10      30.54F
EVANSTON, WY   SUNNY     43  10  26 VRB3      30.54F
ROCK SPRINGS,  SUNNY     46   3  17 W6        30.48F

$$



USA.gov is the U.S. government's official web portal to all federal, state and local government web resources and services.